Temperature
-3 -3 -3 -4 -4 -4 -4 -4 -4 -4 -5 -5 -5 -6 -5 -5 -6 -6 -6 -6 -6 -6 -6 -6 -6 -5 -5 -5 -5 -5 -5 -5 -5 -5 -5 -5 -4 -4 -4 -4 -4 -4 -4 -4
-4 -3 -4 -4 -4 -5 -5 -5 -5 -5 -5 -6 -6 -6 -6 -7 -7 -7 -7 -7 -7 -7 -7 -7 -6 -6 -6 -6 -6 -6 -5 -5 -5 -5 -5 -5 -5 -5 -5 -5 -5 -5 -5 -4
-4 -4 -4 -4 -5 -6 -6 -7 -7 -6 -6 -7 -7 -7 -7 -7 -8 -8 -8 -8 -8 -8 -8 -7 -7 -7 -7 -6 -6 -6 -6 -6 -6 -6 -6 -5 -5 -5 -5 -5 -5 -5 -5 -5
-4 -5 -4 -4 -6 -6 -6 -8 -8 -8 -8 -8 -8 -8 -8 -8 -8 -9 -9 -9 -8 -8 -8 -8 -7 -7 -7 -7 -7 -7 -7 -7 -6 -6 -6 -6 -6 -6 -6 -6 -6 -6 -6 -5
-5 -6 -5 -5 -6 -7 -7 -8 -9 -9 -9 -9 -9 -9 -8 -8 -9 -9 -9 -9 -9 -9 -9 -8 -8 -8 -8 -7 -7 -7 -7 -7 -7 -7 -7 -7 -7 -6 -6 -6 -6 -6 -6 -6
-6 -5 -5 -5 -7 -7 -7 -7 -8 -9 -10 -10 -10 -9 -9 -9 -10 -10 -9 -9 -9 -9 -9 -9 -8 -8 -8 -8 -8 -8 -8 -8 -8 -8 -7 -7 -7 -7 -7 -7 -7 -7 -6 -6
-7 -7 -7 -8 -8 -8 -7 -7 -8 -9 -9 -10 -10 -10 -10 -10 -10 -10 -10 -10 -10 -9 -9 -9 -9 -9 -9 -9 -9 -9 -8 -8 -8 -8 -8 -8 -8 -8 -7 -7 -7 -7 -7 -7
-8 -8 -7 -8 -9 -9 -8 -8 -9 -9 -9 -10 -10 -10 -10 -10 -11 -11 -10 -10 -10 -10 -10 -10 -10 -9 -9 -9 -9 -9 -9 -9 -8 -8 -8 -8 -8 -8 -8 -8 -8 -8 -8 -7
-8 -8 -8 -9 -9 -8 -8 -9 -9 -9 -9 -10 -10 -11 -11 -11 -11 -11 -11 -11 -11 -10 -10 -10 -10 -10 -10 -10 -10 -9 -9 -9 -9 -9 -9 -9 -9 -9 -9 -9 -9 -9 -9 -8
-10 -9 -9 -9 -9 -9 -9 -9 -9 -10 -10 -10 -11 -11 -11 -12 -12 -12 -11 -11 -11 -11 -11 -10 -10 -11 -10 -10 -10 -10 -10 -10 -9 -9 -9 -9 -9 -10 -10 -10 -10 -9 -9 -9
-10 -10 -10 -9 -9 -9 -9 -10 -10 -10 -10 -11 -11 -12 -12 -12 -12 -12 -12 -12 -12 -11 -11 -11 -11 -11 -11 -11 -11 -10 -10 -10 -10 -10 -10 -10 -10 -10 -10 -10 -10 -10 -10 -10
-10 -10 -10 -9 -9 -10 -10 -10 -10 -11 -11 -11 -12 -12 -12 -12 -12 -12 -12 -12 -12 -12 -12 -12 -11 -11 -11 -11 -11 -11 -11 -11 -11 -11 -11 -11 -10 -10 -10 -11 -11 -10 -10 -10
-9 -9 -10 -10 -10 -10 -11 -11 -11 -11 -12 -12 -12 -12 -13 -13 -13 -13 -13 -13 -13 -13 -12 -12 -12 -12 -12 -11 -11 -11 -11 -11 -11 -11 -11 -11 -11 -11 -11 -10 -10 -11 -11 -11
-10 -10 -10 -10 -10 -11 -11 -11 -11 -12 -12 -12 -12 -13 -13 -13 -13 -13 -13 -13 -13 -13 -13 -13 -13 -12 -12 -12 -12 -12 -12 -12 -12 -12 -12 -12 -12 -12 -11 -11 -11 -11 -11 -11
-10 -11 -11 -11 -11 -11 -11 -12 -12 -12 -12 -12 -13 -13 -13 -13 -13 -13 -13 -13 -13 -13 -13 -13 -13 -13 -13 -13 -12 -12 -12 -12 -12 -12 -12 -12 -12 -12 -12 -12 -12 -11 -11 -11
-11 -11 -11 -11 -11 -11 -12 -12 -12 -12 -12 -13 -13 -13 -13 -13 -13 -13 -13 -14 -14 -14 -14 -13 -13 -13 -13 -13 -13 -13 -13 -13 -13 -13 -13 -12 -12 -12 -12 -12 -12 -12 -12 -12
-11 -11 -11 -12 -12 -12 -12 -12 -12 -13 -13 -13 -13 -13 -13 -13 -14 -14 -14 -14 -14 -14 -14 -14 -14 -14 -14 -14 -14 -13 -13 -13 -13 -13 -13 -13 -13 -13 -13 -13 -13 -13 -13 -13
-11 -11 -11 -11 -12 -12 -12 -12 -13 -13 -13 -13 -13 -13 -14 -14 -14 -14 -14 -14 -14 -14 -14 -14 -14 -14 -14 -14 -14 -14 -14 -14 -14 -14 -14 -14 -14 -14 -14 -14 -14 -13 -13 -13
-11 -11 -11 -11 -12 -12 -12 -13 -13 -13 -13 -13 -14 -14 -14 -14 -14 -14 -14 -14 -14 -14 -14 -14 -14 -14 -14 -14 -14 -14 -14 -14 -14 -14 -14 -14 -14 -14 -14 -14 -14 -14 -14 -14
-11 -11 -11 -12 -12 -12 -12 -13 -13 -13 -13 -14 -14 -14 -14 -14 -14 -14 -14 -14 -14 -14 -14 -14 -14 -14 -14 -14 -15 -15 -15 -15 -15 -15 -15 -15 -14 -14 -14 -14 -14 -14 -14 -14
-11 -11 -12 -12 -12 -12 -13 -13 -13 -13 -13 -14 -14 -14 -14 -14 -14 -14 -14 -14 -14 -14 -15 -15 -15 -15 -15 -15 -15 -15 -15 -15 -15 -15 -15 -15 -15 -15 -15 -15 -15 -15 -14 -14
-11 -12 -12 -12 -12 -13 -13 -13 -13 -13 -14 -14 -14 -14 -14 -14 -14 -14 -14 -15 -14 -15 -15 -15 -15 -15 -15 -15 -15 -15 -15 -15 -15 -15 -15 -15 -15 -15 -15 -15 -15 -15 -15 -15
-12 -12 -12 -12 -12 -13 -13 -13 -13 -13 -14 -14 -14 -14 -14 -14 -14 -14 -14 -14 -15 -15 -15 -15 -15 -15 -15 -15 -15 -15 -15 -15 -15 -15 -15 -15 -15 -15 -15 -15 -15 -15 -15 -15
-12 -12 -12 -12 -13 -13 -13 -13 -13 -14 -14 -14 -14 -14 -14 -14 -14 -14 -15 -15 -15 -15 -15 -15 -15 -15 -15 -15 -15 -15 -16 -16 -16 -16 -16 -16 -16 -16 -16 -15 -15 -15 -15 -15
-12 -12 -12 -13 -13 -13 -13 -13 -13 -14 -14 -14 -14 -14 -14 -15 -15 -14 -15 -15 -15 -15 -15 -15 -15 -15 -15 -15 -16 -16 -16 -16 -16 -16 -16 -16 -16 -16 -16 -16 -15 -15 -15 -15
-12 -13 -13 -13 -13 -13 -14 -14 -14 -14 -14 -14 -14 -14 -14 -15 -15 -15 -15 -15 -15 -15 -15 -15 -15 -15 -15 -15 -16 -16 -16 -16 -16 -16 -16 -16 -16 -16 -16 -16 -16 -15 -15 -15
-13 -13 -13 -13 -13 -13 -14 -14 -14 -14 -14 -14 -14 -14 -15 -15 -15 -15 -15 -15 -15 -15 -15 -15 -15 -15 -15 -15 -16 -16 -16 -16 -16 -16 -16 -16 -16 -16 -16 -16 -16 -16 -16 -15
Wind_Speed
7 6 3 4 5 3 6 6 7 6 5 7 6 4 4 4 5 6 6 7 7 6 6 7 7 6 6 6 5 4 4 4 5 4 4 4 4 4 4 4 4 4 4 4
4 2 2 4 5 4 5 4 6 7 8 6 5 3 4 5 6 6 7 8 8 8 8 8 8 8 7 7 6 5 4 4 4 4 4 4 4 4 4 3 4 4 4 4
4 4 4 5 3 3 3 3 4 6 5 5 6 6 5 5 6 6 8 8 9 9 8 9 8 8 7 7 6 5 5 4 4 4 4 5 4 4 4 4 4 4 4 4
3 4 4 4 0 2 2 1 2 3 5 6 8 8 6 4 5 7 8 9 9 9 9 8 8 7 7 6 5 5 5 5 5 4 5 5 4 4 4 3 4 4 5 4
1 2 6 4 2 1 2 4 1 3 6 7 8 5 4 3 4 6 7 8 8 9 9 8 8 7 6 6 5 5 5 5 5 4 5 5 4 4 3 3 3 4 4 4
2 2 5 4 3 3 1 4 2 3 6 7 6 5 6 6 7 8 8 8 8 8 7 7 8 6 5 5 5 5 6 6 5 4 5 5 4 4 3 3 3 4 4 3
4 5 5 4 4 1 2 5 4 4 6 6 5 5 7 8 8 7 8 9 8 7 7 7 8 6 5 6 6 6 6 5 5 4 4 4 3 3 3 3 3 3 4 4
3 4 6 2 2 2 4 4 4 5 5 6 6 6 7 7 8 8 9 9 8 7 7 8 7 6 6 7 7 6 5 5 5 4 4 3 3 2 2 2 2 2 3 4
5 5 2 1 2 3 3 4 5 4 5 4 5 6 7 7 7 8 8 8 7 7 8 8 7 6 6 8 7 6 5 5 4 4 3 3 2 2 2 1 1 2 2 3
3 4 3 3 3 3 3 4 5 4 4 4 5 5 6 6 7 7 8 7 7 7 8 8 8 7 7 7 7 5 5 5 4 4 3 3 3 2 2 2 2 2 3 3
3 4 4 3 3 3 4 4 4 4 4 3 3 5 5 6 7 7 8 7 7 6 7 8 8 8 8 8 6 5 5 5 5 4 3 3 3 2 2 2 2 2 2 2
4 4 3 5 4 3 4 5 4 4 4 3 3 4 5 6 6 6 7 7 7 7 7 8 8 8 9 8 6 5 5 5 4 3 3 3 3 3 4 4 5 5 5 4
3 3 3 5 4 3 4 4 5 4 3 4 4 3 4 5 6 6 7 7 8 8 8 8 8 9 9 8 7 5 4 4 4 3 3 3 3 3 4 5 6 6 7 7
2 2 2 3 4 4 4 4 4 3 3 3 3 4 4 5 6 6 7 7 7 7 7 8 8 9 9 9 7 6 4 5 4 3 3 3 3 3 3 3 4 5 6 7
3 2 3 4 4 3 3 3 3 4 4 4 4 4 5 5 6 7 7 7 7 8 8 8 8 9 10 9 8 6 5 3 3 3 3 3 3 3 3 3 3 3 4 5
4 4 3 3 3 4 3 3 3 4 4 5 5 5 5 5 6 6 6 6 7 8 8 8 8 9 9 9 8 6 5 7 6 4 3 3 3 3 3 3 3 3 3 4
2 3 3 4 4 4 3 3 3 4 4 4 5 6 5 5 6 6 7 7 6 7 7 7 8 9 9 8 7 6 5 5 7 5 3 3 3 3 3 3 3 3 3 4
4 4 4 4 4 4 4 4 3 4 4 5 5 4 5 5 6 7 7 7 7 7 7 7 8 8 8 8 6 5 4 4 4 4 3 3 3 3 3 3 3 3 3 4
3 3 4 3 3 3 3 3 4 4 4 4 4 4 5 5 6 6 6 6 7 8 8 8 12 9 8 8 8 4 4 4 4 3 3 4 4 3 3 3 3 3 3 3
3 3 3 2 2 2 3 3 3 4 4 3 4 4 5 6 6 6 6 5 5 6 7 9 8 7 7 7 8 4 4 4 4 3 3 3 3 3 3 3 3 3 3 3
4 3 2 2 3 3 3 3 3 4 4 3 4 4 5 6 6 5 5 6 6 7 7 10 7 6 6 7 7 4 4 4 3 3 3 3 3 3 3 3 3 3 3 3
3 3 3 3 3 3 3 3 3 3 4 4 4 4 5 6 6 5 5 5 7 10 7 5 5 8 9 8 4 4 4 4 4 3 3 3 3 3 4 4 4 4 4 3
3 3 3 3 3 3 4 3 3 3 3 4 5 5 5 5 5 5 6 5 6 10 7 5 9 11 11 6 4 4 4 4 4 4 3 3 4 4 4 4 4 4 4 4
2 2 3 2 2 2 3 4 4 4 4 5 5 5 5 5 5 4 5 9 11 11 6 8 12 12 10 4 4 4 4 4 4 4 4 3 3 4 4 4 4 4 4 4
2 2 2 2 2 3 4 4 4 4 4 4 5 5 4 4 4 6 6 7 10 10 6 9 12 11 6 4 4 4 4 4 4 4 4 4 4 4 4 4 4 5 5 5
2 2 3 3 3 3 3 3 3 3 4 5 5 5 4 4 5 5 5 6 7 9 7 6 6 7 5 4 5 5 5 6 6 5 5 5 5 5 5 5 6 5 5 5
2 2 2 3 3 3 2 3 3 4 4 5 6 5 5 5 5 5 5 5 6 6 6 5 5 5 5 5 5 5 5 5 5 5 5 5 5 5 6 6 6 6 6 6
Wind_Direction
259 271 259 254 262 218 204 212 219 242 243 278 290 289 297 305 317 322 329 336 335 333 328 323 321 320 321 317 315 305 290 286 284 285 283 282 283 281 282 280 276 270 266 269
282 280 278 289 285 237 230 232 245 266 278 297 310 317 313 312 318 320 325 328 329 329 327 324 321 318 317 317 316 312 293 287 292 293 291 287 284 279 280 284 285 280 270 271
271 310 337 295 274 201 208 216 205 240 266 321 325 315 306 310 319 320 321 321 322 320 317 315 313 310 306 307 310 310 300 295 297 296 295 292 288 284 281 280 280 279 278 275
289 357 268 249 349 193 209 269 243 271 301 308 301 297 298 307 316 319 318 317 316 314 313 312 310 309 307 309 312 311 309 304 301 299 293 291 286 282 285 284 277 275 276 273
204 269 272 291 323 344 247 285 308 290 304 314 317 311 298 326 330 309 305 305 305 306 305 312 313 312 313 316 319 319 315 309 301 294 292 288 282 281 281 281 283 282 283 277
181 232 255 270 307 314 145 271 314 319 304 311 331 320 300 326 327 319 316 314 313 313 317 321 317 315 315 315 317 312 306 302 299 295 285 280 277 275 276 274 276 284 288 288
210 233 263 289 310 8 174 276 310 297 294 300 287 270 292 314 321 322 321 319 319 321 326 322 322 326 325 324 315 303 304 305 307 304 294 288 281 278 279 277 281 283 288 290
183 216 261 315 75 176 248 296 299 293 292 293 290 298 308 318 323 326 327 327 329 331 328 327 330 335 332 326 315 313 313 314 314 311 306 309 296 293 286 275 277 286 294 299
195 217 264 159 201 259 279 286 291 292 298 301 300 306 316 323 325 326 327 328 331 332 332 334 337 339 333 323 323 327 330 326 324 325 324 318 309 309 309 300 292 295 299 300
248 261 264 255 288 304 294 287 296 298 299 302 304 311 320 324 326 329 329 330 334 340 343 340 339 340 330 325 331 335 336 334 335 336 338 335 332 329 323 312 303 304 303 299
259 287 306 287 290 305 316 319 319 321 317 311 313 317 320 322 324 328 330 334 339 342 339 335 337 339 335 333 335 340 339 339 341 345 341 336 332 329 326 313 312 308 298 294
241 250 242 278 302 318 320 321 322 328 330 330 322 314 322 322 324 329 332 336 340 340 338 335 337 338 337 337 339 342 343 342 340 342 342 339 332 330 333 336 334 335 338 333
251 279 265 285 305 320 313 318 324 325 317 321 328 325 327 327 331 334 337 341 339 336 335 335 338 340 339 338 339 342 335 330 331 337 337 334 332 333 333 337 339 341 341 337
292 310 295 297 301 314 319 326 331 336 333 326 326 331 334 334 333 336 336 333 331 334 335 337 339 339 337 336 338 337 331 331 334 326 325 327 329 328 328 330 334 335 338 347
307 287 269 291 308 325 338 345 349 344 341 340 338 338 338 335 330 327 326 329 335 339 339 339 340 338 337 338 339 336 332 327 326 326 328 327 325 326 324 324 329 334 343 351
307 309 303 305 309 324 336 339 332 323 326 330 333 332 328 324 321 322 328 336 338 335 333 334 336 333 334 335 337 336 336 342 346 344 340 336 334 337 336 335 337 338 339 338
308 306 306 309 306 307 304 299 298 302 312 317 318 323 328 332 331 332 332 333 329 322 323 327 327 329 331 333 334 333 332 337 344 344 340 335 337 338 335 336 335 330 326 332
254 264 267 270 278 289 300 305 302 306 306 307 315 323 325 326 322 321 323 326 329 329 328 328 327 331 333 334 333 331 332 333 336 336 337 337 340 336 331 332 333 330 330 338
282 281 283 281 274 272 282 291 295 299 304 310 312 311 308 307 310 312 316 323 329 330 327 326 333 340 331 330 335 333 335 334 334 334 336 340 344 336 330 328 327 327 328 333
298 300 300 298 299 289 287 293 297 301 303 304 307 311 315 315 315 317 317 311 306 301 308 318 326 325 324 326 336 334 333 330 328 328 329 329 328 327 324 321 321 321 323 323
292 297 298 296 301 299 289 289 291 296 304 304 300 301 305 309 312 313 316 314 313 315 320 327 330 323 326 334 340 338 332 327 324 321 319 319 320 320 319 318 317 317 316 315
282 281 281 287 293 297 297 291 285 290 299 303 302 303 308 312 315 312 296 290 305 320 328 318 317 324 334 340 340 335 333 329 324 322 320 317 315 314 313 312 310 309 309 306
275 271 276 279 278 286 300 296 289 287 287 291 294 297 298 298 301 305 308 306 309 319 327 316 323 330 338 347 339 333 332 329 324 320 316 311 306 303 303 303 301 301 302 303
281 286 287 290 289 293 300 301 298 294 287 286 287 288 293 303 304 288 287 310 321 322 322 321 329 333 340 348 334 328 324 318 312 309 307 306 304 302 300 300 299 299 297 294
280 280 280 288 287 285 289 301 305 302 303 301 299 297 292 284 287 299 303 307 316 323 321 322 327 332 337 325 321 316 312 307 305 306 303 304 301 298 296 294 293 292 291 289
269 267 266 266 269 277 288 295 298 301 306 308 308 304 301 297 292 297 302 305 308 317 319 314 315 320 319 314 311 309 307 309 312 310 303 299 296 295 294 293 292 288 286 285
280 277 281 289 287 282 283 284 286 291 293 292 297 300 301 303 304 306 307 308 309 309 308 308 309 308 307 307 306 305 303 302 301 299 298 295 293 291 292 290 289 288 287 285
Height
1504 1501 1503 1503 1502 1503 1504 1503 1502 1496 1496 1492 1490 1490 1488 1486 1484 1481 1479 1476 1474 1471 1468 1466 1463 1461 1459 1457 1455 1454 1452 1451 1450 1449 1448 1447 1446 1445 1445 1444 1443 1444 1444 1444
1504 1499 1501 1500 1499 1500 1500 1501 1501 1498 1495 1491 1490 1488 1486 1484 1482 1480 1477 1474 1471 1469 1466 1463 1460 1457 1455 1453 1451 1450 1448 1447 1446 1445 1444 1443 1442 1441 1440 1439 1439 1439 1439 1439
1504 1501 1499 1500 1499 1500 1501 1500 1500 1499 1496 1492 1490 1487 1485 1483 1481 1478 1476 1473 1469 1466 1463 1460 1456 1454 1451 1449 1447 1445 1444 1442 1442 1441 1439 1439 1438 1437 1436 1435 1435 1435 1434 1434
1507 1506 1505 1500 1498 1498 1498 1499 1498 1496 1495 1492 1490 1486 1483 1481 1479 1476 1474 1470 1467 1463 1460 1456 1453 1450 1447 1445 1443 1441 1440 1438 1437 1436 1435 1434 1433 1432 1432 1431 1431 1430 1430 1430
1511 1512 1505 1499 1498 1499 1499 1498 1496 1496 1493 1490 1487 1483 1480 1479 1477 1475 1471 1468 1464 1460 1457 1453 1450 1447 1444 1441 1439 1437 1436 1434 1433 1432 1431 1430 1429 1428 1428 1427 1427 1426 1426 1426
1512 1509 1505 1499 1499 1497 1499 1498 1494 1493 1491 1489 1487 1485 1479 1477 1475 1471 1468 1465 1461 1457 1454 1450 1447 1444 1440 1437 1435 1433 1432 1430 1429 1428 1427 1426 1425 1424 1424 1423 1423 1423 1422 1422
1512 1512 1504 1502 1498 1497 1500 1496 1493 1491 1490 1488 1486 1484 1479 1475 1472 1469 1465 1461 1458 1454 1450 1447 1444 1441 1437 1434 1432 1430 1428 1426 1425 1424 1423 1422 1422 1421 1420 1420 1419 1419 1418 1418
1513 1513 1507 1500 1499 1500 1498 1493 1491 1489 1488 1486 1483 1480 1476 1473 1469 1466 1462 1458 1455 1451 1448 1445 1442 1438 1435 1431 1429 1427 1425 1423 1421 1420 1420 1419 1418 1417 1417 1416 1416 1415 1414 1414
1508 1505 1500 1498 1497 1496 1494 1492 1489 1487 1485 1483 1480 1477 1474 1470 1467 1463 1460 1456 1453 1450 1446 1443 1440 1436 1432 1429 1427 1424 1422 1419 1418 1417 1416 1415 1415 1414 1413 1413 1412 1411 1411 1410
1504 1499 1497 1496 1495 1493 1492 1490 1487 1485 1483 1480 1477 1474 1471 1468 1465 1462 1458 1455 1451 1448 1444 1441 1438 1435 1431 1428 1425 1422 1419 1417 1415 1414 1413 1412 1412 1411 1410 1410 1409 1409 1408 1407
1501 1498 1495 1493 1492 1491 1489 1487 1485 1482 1480 1478 1475 1472 1470 1467 1463 1460 1457 1453 1450 1447 1443 1439 1436 1433 1430 1427 1424 1421 1418 1416 1414 1412 1411 1410 1410 1409 1408 1408 1408 1407 1406 1405
1499 1495 1495 1492 1491 1489 1487 1485 1483 1480 1477 1476 1473 1470 1468 1465 1462 1459 1455 1452 1448 1445 1442 1438 1435 1432 1429 1425 1423 1420 1417 1415 1413 1411 1410 1409 1408 1407 1407 1406 1406 1405 1404 1403
1495 1494 1493 1491 1489 1487 1485 1483 1481 1478 1476 1473 1471 1469 1466 1463 1460 1457 1454 1450 1447 1444 1440 1437 1434 1430 1427 1425 1422 1419 1417 1415 1413 1411 1409 1408 1407 1405 1404 1404 1404 1403 1401 1401
1494 1492 1490 1488 1487 1485 1483 1481 1479 1477 1474 1472 1469 1467 1464 1462 1459 1455 1452 1449 1446 1443 1439 1436 1433 1429 1427 1424 1421 1418 1416 1414 1412 1410 1408 1407 1405 1404 1403 1401 1400 1400 1399 1398
1491 1490 1489 1487 1485 1483 1481 1479 1477 1474 1472 1470 1468 1465 1463 1460 1457 1454 1451 1448 1445 1442 1438 1435 1432 1429 1426 1423 1420 1417 1415 1413 1411 1409 1407 1406 1405 1403 1402 1401 1399 1398 1397 1396
1489 1488 1487 1485 1483 1481 1479 1477 1475 1472 1470 1468 1466 1464 1462 1459 1456 1453 1450 1447 1444 1440 1437 1434 1431 1428 1425 1422 1419 1417 1414 1412 1410 1408 1406 1405 1403 1402 1400 1399 1398 1397 1396 1395
1487 1485 1484 1482 1481 1479 1477 1475 1473 1471 1469 1467 1465 1462 1460 1458 1455 1452 1449 1446 1443 1440 1437 1434 1430 1428 1425 1422 1419 1416 1413 1411 1409 1407 1405 1404 1402 1401 1399 1398 1397 1396 1395 1394
1486 1485 1483 1481 1479 1477 1475 1474 1472 1470 1468 1466 1463 1461 1459 1456 1453 1450 1448 1445 1442 1439 1436 1433 1430 1427 1424 1421 1418 1415 1413 1410 1408 1406 1404 1403 1401 1400 1399 1397 1396 1395 1394 1393
1483 1482 1481 1479 1477 1476 1474 1472 1470 1468 1466 1464 1462 1459 1457 1455 1452 1449 1446 1443 1440 1437 1434 1431 1429 1426 1423 1420 1417 1415 1412 1410 1407 1405 1404 1402 1401 1399 1398 1396 1395 1394 1393 1392
1481 1480 1479 1477 1476 1474 1472 1470 1468 1466 1464 1462 1460 1458 1455 1453 1450 1448 1445 1442 1439 1436 1433 1430 1427 1424 1421 1419 1416 1414 1411 1409 1407 1405 1403 1401 1400 1398 1397 1395 1394 1393 1391 1390
1479 1478 1476 1475 1473 1472 1470 1469 1466 1464 1462 1460 1458 1456 1453 1451 1448 1446 1443 1440 1438 1435 1432 1429 1426 1423 1420 1418 1415 1413 1410 1408 1406 1404 1402 1400 1398 1397 1395 1394 1393 1391 1390 1389
1477 1476 1474 1473 1471 1470 1468 1466 1464 1462 1460 1458 1456 1454 1451 1449 1447 1444 1442 1439 1436 1433 1430 1427 1424 1422 1419 1416 1414 1411 1409 1407 1404 1402 1400 1398 1397 1395 1393 1392 1391 1389 1388 1387
1475 1474 1472 1471 1469 1468 1466 1464 1462 1460 1458 1456 1454 1452 1449 1447 1445 1442 1439 1437 1434 1431 1428 1426 1423 1420 1418 1414 1412 1409 1407 1405 1403 1401 1399 1397 1395 1393 1391 1390 1389 1387 1386 1385
1473 1472 1470 1469 1467 1466 1464 1462 1460 1458 1456 1454 1452 1450 1448 1445 1443 1440 1438 1435 1432 1429 1426 1424 1421 1418 1415 1412 1410 1407 1405 1403 1401 1398 1396 1395 1393 1391 1389 1387 1386 1385 1383 1382
1471 1470 1468 1467 1465 1463 1462 1460 1458 1456 1454 1452 1450 1448 1446 1443 1441 1438 1435 1433 1430 1427 1424 1421 1419 1416 1413 1410 1408 1405 1403 1401 1398 1396 1394 1392 1390 1388 1386 1385 1383 1382 1380 1379
1469 1468 1466 1465 1463 1462 1460 1458 1455 1453 1451 1449 1447 1445 1443 1441 1438 1436 1433 1430 1428 1425 1422 1419 1416 1413 1411 1408 1405 1403 1400 1398 1396 1394 1392 1389 1387 1385 1384 1382 1380 1379 1377 1376
1467 1465 1464 1462 1461 1459 1457 1455 1453 1451 1449 1447 1445 1443 1440 1438 1436 1433 1431 1428 1425 1422 1419 1417 1414 1411 1408 1405 1403 1400 1398 1395 1393 1391 1388 1386 1384 1382 1380 1378 1377 1375 1374 1372